TimeEST,TemperatureF,Dew PointF,Humidity,Sea Level PressureIn,VisibilityMPH,Wind Direction,Wind SpeedMPH,Gust SpeedMPH,PrecipitationIn,Events,Conditions,WindDirDegrees,DateUTC
12:53 AM,59.0,46.9,64,29.99,10.0,NNW,10.4,-,N/A,,Overcast,330,2013-03-02 05:53:00
1:53 AM,59.0,46.9,64,29.99,10.0,NNW,11.5,-,N/A,,Overcast,330,2013-03-02 06:53:00
2:53 AM,57.0,45.0,64,29.99,10.0,NW,11.5,-,0.00,,Overcast,320,2013-03-02 07:53:00
3:53 AM,57.0,37.9,49,29.99,10.0,North,18.4,25.3,N/A,,Overcast,350,2013-03-02 08:53:00
4:53 AM,55.9,39.9,55,29.99,10.0,NNW,11.5,19.6,N/A,,Overcast,330,2013-03-02 09:53:00
5:53 AM,55.9,41.0,57,30.02,10.0,NNW,10.4,-,N/A,,Overcast,340,2013-03-02 10:53:00
6:53 AM,55.9,41.0,57,30.03,10.0,NNW,10.4,-,N/A,,Overcast,330,2013-03-02 11:53:00
7:53 AM,55.9,41.0,57,30.04,10.0,North,10.4,19.6,N/A,,Overcast,350,2013-03-02 12:53:00
8:53 AM,57.0,42.1,57,30.05,10.0,North,16.1,23.0,N/A,,Overcast,10,2013-03-02 13:53:00
9:53 AM,57.0,42.1,57,30.05,10.0,North,12.7,-,N/A,,Mostly Cloudy,10,2013-03-02 14:53:00
10:53 AM,57.9,42.1,56,30.04,10.0,North,8.1,-,N/A,,Overcast,350,2013-03-02 15:53:00
11:53 AM,59.0,43.0,55,30.03,10.0,NNW,9.2,-,N/A,,Overcast,340,2013-03-02 16:53:00
12:53 PM,63.0,43.0,48,30.01,10.0,NW,10.4,-,N/A,,Overcast,320,2013-03-02 17:53:00
1:53 PM,69.1,45.0,42,29.97,10.0,NW,13.8,-,N/A,,Mostly Cloudy,310,2013-03-02 18:53:00
2:53 PM,70.0,43.0,38,29.98,10.0,NW,19.6,25.3,N/A,,Mostly Cloudy,320,2013-03-02 19:53:00
3:53 PM,66.0,43.0,43,29.98,10.0,NW,18.4,25.3,N/A,,Partly Cloudy,310,2013-03-02 20:53:00
4:53 PM,64.0,41.0,43,29.99,10.0,NW,18.4,-,N/A,,Scattered Clouds,320,2013-03-02 21:53:00
5:53 PM,60.1,41.0,49,30.01,10.0,NW,9.2,-,N/A,,Clear,320,2013-03-02 22:53:00
6:53 PM,55.0,43.0,64,30.02,10.0,NW,4.6,-,N/A,,Partly Cloudy,310,2013-03-02 23:53:00
7:53 PM,55.4,41.0,58,30.04,10.0,NW,9.2,-,N/A,,Clear,320,2013-03-03 00:53:00
8:53 PM,51.1,42.1,71,30.06,10.0,NW,4.6,-,N/A,,Clear,310,2013-03-03 01:53:00
9:53 PM,51.1,43.0,74,30.06,10.0,West,4.6,-,N/A,,Clear,270,2013-03-03 02:53:00
10:53 PM,51.1,43.0,74,30.05,10.0,Calm,Calm,-,N/A,,Clear,0,2013-03-03 03:53:00
11:53 PM,51.1,43.0,74,30.04,10.0,Calm,Calm,-,N/A,,Clear,0,2013-03-03 04:53:00